This is the latest recevied weather packets stored in our database for station/object KJ5JYX. If no packets are shown the sender has not sent any weather packets the latest 10 day(s).
| Time | Temp. | Humidity | Pressure | Rain* | Wind** | Luminosity | Snow |
|---|---|---|---|---|---|---|---|
| 1777417124 | 30.56° C | 75% | 1010.3 hPa | 0 mm | - | 114 W/m² | - |
| 1777416820 | 30.56° C | 75% | 1010.3 hPa | 0 mm | - | 110 W/m² | - |
| 1777416515 | 30.56° C | 74% | 1010.5 hPa | 0 mm | - | 142 W/m² | - |
| 1777416212 | 30.56° C | 74% | 1010.6 hPa | 0 mm | - | 139 W/m² | - |
| 1777415911 | 31.11° C | 73% | 1010.5 hPa | 0 mm | - | 90 W/m² | - |
| 1777415607 | 31.11° C | 74% | 1010.5 hPa | 0 mm | - | 169 W/m² | - |
| 1777415303 | 31.11° C | 74% | 1010.3 hPa | 0 mm | - | 124 W/m² | - |
| 1777414998 | 31.67° C | 72% | 1010.7 hPa | 0 mm | - | 153 W/m² | - |
| 1777414692 | 31.67° C | 72% | 1010.8 hPa | 0 mm | - | 174 W/m² | - |
| 1777414388 | 31.67° C | 72% | 1010.6 hPa | 0 mm | - | 190 W/m² | - |
| 1777414087 | 31.67° C | 71% | 1010.7 hPa | 0 mm | - | 229 W/m² | - |
| 1777413782 | 31.67° C | 72% | 1010.8 hPa | 0 mm | - | 252 W/m² | - |
| 1777413477 | 32.22° C | 70% | 1010.9 hPa | 0 mm | - | 230 W/m² | - |
| 1777413174 | 32.22° C | 69% | 1010.8 hPa | 0 mm | - | 235 W/m² | - |
| 1777412869 | 32.22° C | 68% | 1010.9 hPa | 0 mm | - | 258 W/m² | - |
| 1777412569 | 32.22° C | 69% | 1011.1 hPa | 0 mm | - | 287 W/m² | - |
| 1777412266 | 32.78° C | 67% | 1011.1 hPa | 0 mm | - | 289 W/m² | - |
| 1777411963 | 32.78° C | 65% | 1011 hPa | 0 mm | - | 202 W/m² | - |
| 1777411662 | 32.78° C | 64% | 1011.2 hPa | 0 mm | - | 214 W/m² | - |
| 1777411357 | 32.78° C | 64% | 1011.4 hPa | 0 mm | - | 276 W/m² | - |
| 1777411056 | 33.33° C | 63% | 1011.4 hPa | 0 mm | - | 401 W/m² | - |
| 1777410751 | 33.89° C | 62% | 1011.4 hPa | 0 mm | - | 469 W/m² | - |
| 1777410450 | 33.89° C | 64% | 1011.5 hPa | 0 mm | - | 425 W/m² | - |
| 1777410150 | 33.33° C | 62% | 1011.7 hPa | 0 mm | - | 514 W/m² | - |
| 1777409845 | 33.89° C | 62% | 1011.6 hPa | 0 mm | - | 430 W/m² | - |
* Rain latest hour (hover to see other rain measurements)
** Current wind speed in m/s (hover to see current wind gust speed)